Total_Precipitation_Accumulation
1.60 1.63 1.69 1.67 1.67 1.70 1.64 1.59 1.63 1.78 1.81 1.76 1.72 1.75 1.74 1.70 1.74 1.77 1.61 1.73 1.85 1.90 1.91 2.05 2.11 2.22 2.26 2.27 2.40 2.52 2.75 2.98 2.69 2.18 2.06 2.07 2.19 2.17 2.06 1.83 1.62 1.54 1.38
1.63 1.76 1.88 1.94 1.97 1.91 1.70 1.59 1.65 1.74 1.80 1.80 1.78 1.77 1.66 1.68 1.85 1.89 1.79 1.86 1.93 1.90 1.94 2.07 1.99 2.15 2.31 2.29 2.40 2.41 2.51 2.82 2.73 2.47 2.41 2.36 2.34 2.25 2.24 2.06 1.73 1.57 1.50
1.86 2.06 2.27 2.38 2.23 2.04 1.91 1.81 1.83 1.82 1.84 1.92 1.94 1.95 1.92 1.94 1.95 2.00 2.09 2.07 1.99 1.90 1.96 1.96 1.93 2.11 2.14 2.25 2.38 2.34 2.32 2.48 2.65 2.59 2.55 2.62 2.59 2.47 2.38 2.19 2.00 1.93 1.63
1.60 1.90 2.13 2.27 2.12 2.03 2.00 1.88 1.82 1.83 1.90 2.01 2.01 2.13 2.28 2.33 2.32 2.26 2.17 2.12 2.06 2.00 1.97 1.92 1.89 1.93 1.98 2.06 2.18 2.27 2.34 2.46 2.59 2.62 2.66 2.79 2.76 2.80 2.75 2.53 2.40 2.31 1.99
1.42 1.56 1.80 2.08 1.93 1.69 1.65 1.63 1.58 1.67 1.79 2.08 2.21 2.28 2.53 2.67 2.50 2.50 2.43 2.33 2.32 2.15 2.02 1.93 1.80 1.81 1.87 1.91 1.88 1.99 2.13 2.27 2.30 2.39 2.47 2.68 2.75 2.85 2.84 2.69 2.57 2.54 2.35
1.32 1.45 1.63 1.76 1.63 1.46 1.36 1.39 1.42 1.52 1.69 1.86 2.00 2.11 2.16 2.02 2.16 2.18 2.16 2.20 2.23 2.13 2.06 1.98 1.83 1.74 1.72 1.68 1.58 1.60 1.68 1.79 1.98 2.21 2.29 2.48 2.67 2.82 3.02 3.08 2.92 2.73 2.58
1.30 1.34 1.48 1.60 1.61 1.51 1.34 1.34 1.41 1.50 1.65 1.73 1.76 1.83 1.80 1.87 1.89 1.68 1.61 1.59 1.76 1.87 1.94 1.92 1.70 1.55 1.63 1.55 1.58 1.54 1.54 1.65 1.75 1.97 2.15 2.25 2.47 2.67 2.91 3.06 3.05 2.93 2.74
1.31 1.40 1.58 1.74 1.75 1.69 1.62 1.57 1.65 1.71 1.69 1.67 1.70 1.75 1.83 1.84 1.75 1.52 1.49 1.45 1.58 1.70 1.77 1.80 1.77 1.70 1.69 1.72 1.64 1.52 1.44 1.51 1.61 1.58 1.63 1.79 2.05 2.41 2.59 2.64 2.79 2.81 2.67
1.52 1.56 1.64 1.79 1.85 1.87 1.95 1.99 2.03 2.01 1.89 1.85 1.91 1.93 1.92 1.87 1.74 1.53 1.51 1.46 1.58 1.62 1.63 1.64 1.65 1.61 1.69 1.57 1.46 1.44 1.43 1.46 1.45 1.42 1.38 1.42 1.56 1.78 2.12 2.28 2.38 2.35 2.24
1.60 1.75 1.80 1.95 2.07 2.05 2.14 2.25 2.33 2.37 2.30 2.34 2.23 2.08 1.96 1.86 1.83 1.54 1.43 1.39 1.48 1.56 1.64 1.60 1.54 1.41 1.39 1.33 1.31 1.43 1.40 1.39 1.43 1.37 1.27 1.21 1.16 1.31 1.63 1.81 1.90 1.94 1.84
1.74 1.82 1.90 2.09 2.27 2.41 2.55 2.67 2.66 2.64 2.69 2.62 2.37 2.24 2.19 2.13 1.96 1.51 1.34 1.28 1.37 1.54 1.60 1.58 1.48 1.40 1.23 1.19 1.19 1.22 1.25 1.22 1.29 1.32 1.29 1.25 1.26 1.26 1.30 1.44 1.65 1.77 1.74
1.87 1.98 2.13 2.25 2.30 2.40 2.70 2.79 2.78 2.72 2.61 2.46 2.30 2.09 1.99 1.96 1.78 1.51 1.31 1.33 1.44 1.53 1.55 1.51 1.50 1.38 1.17 1.10 1.03 1.03 1.05 0.98 1.01 1.13 1.12 1.07 1.07 1.06 1.10 1.24 1.44 1.59 1.68
1.88 2.07 2.25 2.37 2.54 2.70 2.80 2.73 2.63 2.59 2.50 2.36 2.22 2.03 1.99 2.07 1.99 1.66 1.45 1.44 1.46 1.39 1.40 1.44 1.38 1.24 1.04 0.90 0.89 0.87 0.81 0.78 0.88 0.98 1.00 0.94 0.91 0.94 1.03 1.17 1.32 1.46 1.51
1.74 1.89 2.03 2.11 2.17 2.29 2.46 2.39 2.25 2.23 2.27 2.25 2.20 2.09 2.04 2.06 2.02 1.76 1.54 1.51 1.48 1.43 1.36 1.32 1.20 1.13 0.99 0.89 0.89 0.82 0.75 0.81 0.91 0.94 0.98 0.99 0.96 0.98 1.01 1.06 1.16 1.28 1.35
1.55 1.63 1.68 1.71 1.80 1.91 2.00 2.06 2.01 1.99 1.94 1.95 1.93 1.91 1.82 1.78 1.82 1.67 1.51 1.55 1.60 1.60 1.53 1.46 1.34 1.23 1.09 0.99 0.98 1.00 1.01 1.06 1.04 1.03 1.08 1.13 1.10 1.04 1.01 1.04 1.17 1.21 1.18
1.61 1.57 1.54 1.57 1.61 1.63 1.72 1.72 1.70 1.59 1.47 1.36 1.30 1.29 1.26 1.31 1.42 1.34 1.26 1.33 1.41 1.48 1.41 1.34 1.31 1.23 1.15 1.14 1.18 1.19 1.18 1.19 1.16 1.17 1.18 1.21 1.21 1.12 1.03 1.03 1.14 1.20 1.15
1.72 1.61 1.54 1.47 1.46 1.48 1.53 1.59 1.60 1.46 1.26 1.10 1.00 0.94 0.92 0.98 1.07 1.07 1.08 1.17 1.28 1.37 1.34 1.34 1.32 1.29 1.23 1.20 1.23 1.23 1.19 1.18 1.23 1.24 1.24 1.25 1.30 1.30 1.26 1.19 1.18 1.23 1.22
1.82 1.72 1.57 1.45 1.39 1.39 1.42 1.44 1.51 1.57 1.45 1.26 1.05 0.88 0.80 0.78 0.82 0.91 1.01 1.12 1.24 1.27 1.25 1.30 1.29 1.27 1.25 1.22 1.20 1.22 1.22 1.24 1.24 1.23 1.26 1.30 1.36 1.38 1.40 1.33 1.25 1.23 1.26
1.61 1.54 1.44 1.39 1.38 1.35 1.37 1.38 1.36 1.41 1.39 1.33 1.19 1.01 0.89 0.80 0.79 0.87 0.90 0.95 1.12 1.20 1.21 1.20 1.17 1.13 1.11 1.11 1.11 1.10 1.10 1.12 1.15 1.21 1.21 1.22 1.29 1.29 1.25 1.24 1.25 1.26 1.27
1.59 1.55 1.42 1.35 1.39 1.39 1.36 1.36 1.33 1.37 1.36 1.35 1.25 1.07 0.93 0.81 0.78 0.82 0.84 0.96 1.14 1.17 1.14 1.10 1.10 1.07 1.07 1.07 1.08 1.07 1.06 1.08 1.12 1.22 1.23 1.23 1.26 1.25 1.20 1.20 1.26 1.28 1.25
1.55 1.51 1.39 1.32 1.32 1.38 1.39 1.35 1.30 1.30 1.29 1.32 1.23 1.03 0.90 0.79 0.80 0.84 0.91 1.04 1.14 1.10 1.07 1.04 1.02 0.98 0.97 0.97 0.99 1.01 1.05 1.11 1.14 1.19 1.23 1.26 1.30 1.29 1.24 1.24 1.28 1.33 1.33
1.53 1.47 1.32 1.16 1.13 1.19 1.24 1.25 1.24 1.22 1.22 1.24 1.17 0.96 0.85 0.72 0.75 0.84 0.91 0.99 1.03 1.03 1.01 1.01 0.95 0.88 0.87 0.90 0.93 1.00 1.05 1.08 1.13 1.21 1.24 1.26 1.32 1.29 1.29 1.31 1.32 1.35 1.41
1.42 1.34 1.20 1.02 0.98 1.07 1.13 1.20 1.20 1.14 1.14 1.13 1.02 0.89 0.83 0.83 0.84 0.90 0.96 0.99 1.00 1.03 1.01 0.96 0.90 0.86 0.85 0.87 0.89 0.95 1.02 1.06 1.06 1.10 1.15 1.20 1.26 1.29 1.33 1.34 1.32 1.35 1.38
1.26 1.24 1.19 1.01 0.97 1.10 1.18 1.25 1.19 1.08 1.05 1.01 0.93 0.91 0.90 0.93 0.92 0.91 0.93 0.97 0.98 0.97 0.96 0.93 0.86 0.82 0.81 0.84 0.87 0.88 0.91 0.93 0.93 0.99 1.03 1.10 1.17 1.23 1.28 1.30 1.30 1.31 1.35
1.20 1.19 1.22 1.10 1.01 1.07 1.13 1.17 1.13 1.05 1.00 0.93 0.88 0.90 0.90 0.88 0.89 0.92 0.94 0.97 0.95 0.91 0.86 0.83 0.85 0.85 0.83 0.83 0.85 0.87 0.88 0.81 0.77 0.79 0.84 0.93 0.99 1.08 1.13 1.13 1.17 1.24 1.30
1.14 1.16 1.22 1.19 1.12 1.14 1.19 1.19 1.17 1.09 1.02 0.95 0.89 0.88 0.89 0.89 0.91 0.92 0.92 0.92 0.91 0.89 0.86 0.84 0.80 0.78 0.78 0.76 0.72 0.71 0.67 0.60 0.59 0.65 0.70 0.76 0.85 0.94 0.97 0.98 0.97 1.06 1.14